{"data":{"norad_id":68272,"epoch":"2026-09-19T23:58:53.262048Z","epoch_age_seconds":94841,"freshness":"FRESH","line1":"1 68272U 26055L   26262.99922757  .00016166  00000+0  48891-3 0  9993","line2":"2 68272  53.1580 134.4067 0002631  24.4934 335.6194 15.34375729 29718","mean_motion":15.34375729,"eccentricity":0.0002631,"inclination_deg":53.158,"raan_deg":134.4067,"arg_perigee_deg":24.4934,"mean_anomaly_deg":335.6194,"bstar":0.00048891,"rev_number":2971,"period_min":93.84924258014,"perigee_km":460.97553563781,"apogee_km":464.575223732,"semimajor_km":6840.9123796849,"source":"CELESTRAK","updated_at":"2026-09-20T09:00:43.847871Z"}}